Hourly Data Report for October 05, 2017

All times are specified in Local Standard Time (LST). Add 1 hour to adjust for Daylight Saving Time where and when it is observed.

TULITA A
NORTHWEST TERRITORIES

64°54'35.000" N
125°34'10.000" W
100.30 m
2201705
ZFN

Related Data

No related data is available for this station

Download Data

Hourly Data (October 2017)
Hourly Data Report for October 5, 2017
Temp Definition
°C
Dew Point Temp Definition
°C
Rel Hum Definition
%
Wind Dir Definition
10's deg

Wind Spd Definition
km/h
Visibility Definition
km
Stn Press Definition
kPa
Hmdx Definition


Wind Chill Definition


Weather Definition


TIME
00:00 Legend Double Dagger 4.0 1.9 87 4 17 LegendMM 99.66     LegendNANA
01:00 Legend Double Dagger 3.5 1.8 88 4 15 LegendMM 99.55     LegendNANA
02:00 Legend Double Dagger 2.9 1.4 90 4 17 LegendMM 99.45     LegendNANA
03:00 Legend Double Dagger 3.3 1.7 89 3 17 LegendMM 99.36     LegendNANA
04:00 Legend Double Dagger 3.2 1.6 89 3 16 LegendMM 99.27     LegendNANA
05:00 Legend Double Dagger 3.0 1.4 89 4 15 LegendMM 99.18     LegendNANA
06:00 Legend Double Dagger 2.8 1.3 90 3 14 LegendMM 99.06     LegendNANA
07:00 Legend Double Dagger 2.7 1.3 90 2 17 LegendMM 98.95     LegendNANA
08:00 Legend Double Dagger 2.7 1.4 91 2 18 LegendMM 98.89     LegendNANA
09:00 Legend Double Dagger 2.4 1.2 92 1 14 LegendMM 98.81     LegendNANA
10:00 Legend Double Dagger 3.8 2.0 88 2 13 LegendMM 98.72     LegendNANA
11:00 Legend Double Dagger 4.5 2.4 87 2 13 LegendMM 98.63     LegendNANA
12:00 Legend Double Dagger 5.5 2.7 82 1 13 LegendMM 98.65     LegendNANA
13:00 Legend Double Dagger 5.5 2.6 82 35 20 LegendMM 98.70     LegendNANA
14:00 Legend Double Dagger 6.3 2.8 78 34 8 LegendMM 98.70     LegendNANA
15:00 Legend Double Dagger 7.0 3.0 76 5 8 LegendMM 98.62     LegendNANA
16:00 Legend Double Dagger 7.1 3.1 76 17 2 LegendMM 98.58     LegendNANA
17:00 Legend Double Dagger 6.7 3.4 79 2 5 LegendMM 98.51     LegendNANA
18:00 Legend Double Dagger 5.2 3.0 86 2 10 LegendMM 98.45     LegendNANA
19:00 Legend Double Dagger 3.9 2.4 90 1 10 LegendMM 98.42     LegendNANA
20:00 Legend Double Dagger 3.2 2.2 93 36 13 LegendMM 98.36     LegendNANA
21:00 Legend Double Dagger 2.1 1.4 95 5 10 LegendMM 98.28     LegendNANA
22:00 Legend Double Dagger 1.9 1.2 95 1 12 LegendMM 98.21     LegendNANA
23:00 Legend Double Dagger 2.4 1.5 94 1 13 LegendMM 98.13     LegendNANA

Notes on Data Quality.

Legend

  • E = Estimated
  • M = Missing
  • NA = Not Available
  • ‡ = Partner data that is not subject to review by the National Climate Archives
Date modified: